RYR30JT LEZL-LEPA

Flight info

Callsign RYR30JT
Flight time N/A
Altitude 38000
Route BUDIT M445 LASPO/N0408F260 M871 GODOX
Aircraft A320/M-SDE3FGHIRWY/LB1

Departure

Time 2026-04-27 08:39
Airport Seville Airport (LEZL)

Arrival

Time N/A
Airport Palma de Mallorca Airport (LEPA)
Time Latitude Longitude Altitude Speed Heading
2026-04-27 07:51 37.42156 -5.90031 96 ft 0 kts 315°
2026-04-27 08:28 37.42150 -5.90023 94 ft 4 kts 313°
2026-04-27 08:28 37.42132 -5.89998 94 ft 4 kts 305°
2026-04-27 08:29 37.42119 -5.89969 94 ft 4 kts 285°
2026-04-27 08:29 37.42119 -5.89940 94 ft 3 kts 230°
2026-04-27 08:29 37.42121 -5.89936 94 ft 0 kts 225°
2026-04-27 08:35 37.42119 -5.89939 94 ft 2 kts 225°
2026-04-27 08:35 37.42101 -5.89962 96 ft 6 kts 225°
2026-04-27 08:35 37.42062 -5.90016 95 ft 11 kts 233°
2026-04-27 08:36 37.42024 -5.90095 96 ft 9 kts 204°
2026-04-27 08:36 37.41983 -5.90140 95 ft 9 kts 251°
2026-04-27 08:36 37.41977 -5.90255 95 ft 18 kts 277°
2026-04-27 08:36 37.41980 -5.90442 94 ft 24 kts 270°
2026-04-27 08:37 37.41979 -5.90643 93 ft 22 kts 269°
2026-04-27 08:37 37.41979 -5.90833 91 ft 21 kts 270°
2026-04-27 08:37 37.41943 -5.91002 91 ft 20 kts 239°
2026-04-27 08:37 37.41875 -5.91148 90 ft 19 kts 239°
2026-04-27 08:38 37.41795 -5.91172 93 ft 10 kts 128°
2026-04-27 08:38 37.41789 -5.91139 91 ft 0 kts 94°
2026-04-27 08:38 37.41788 -5.91130 90 ft 7 kts 94°
2026-04-27 08:39 37.41792 -5.90744 94 ft 80 kts 90°
2026-04-27 08:39 37.41793 -5.89779 98 ft 138 kts 91°
2026-04-27 08:39 37.41794 -5.88421 410 ft 159 kts 87°
2026-04-27 08:39 37.41787 -5.87035 1104 ft 159 kts 90°
2026-04-27 08:40 37.41804 -5.85607 1681 ft 173 kts 91°
2026-04-27 08:40 37.41829 -5.83973 1985 ft 197 kts 90°
2026-04-27 08:40 37.41880 -5.82234 2811 ft 200 kts 84°
2026-04-27 08:40 37.42139 -5.80417 3322 ft 224 kts 81°
2026-04-27 08:41 37.42442 -5.78395 3828 ft 244 kts 81°
2026-04-27 08:41 37.42785 -5.76267 4672 ft 252 kts 75°
2026-04-27 08:41 37.43449 -5.74197 5562 ft 257 kts 69°
2026-04-27 08:41 37.44174 -5.72126 6493 ft 260 kts 68°
2026-04-27 08:42 37.44921 -5.70021 7275 ft 268 kts 68°
2026-04-27 08:42 37.45679 -5.67880 8182 ft 266 kts 68°
2026-04-27 08:42 37.46444 -5.65712 8918 ft 276 kts 68°
2026-04-27 08:42 37.47228 -5.63482 9749 ft 281 kts 68°
2026-04-27 08:43 37.48028 -5.61200 10372 ft 294 kts 68°
2026-04-27 08:43 37.48870 -5.58788 10650 ft 317 kts 68°
2026-04-27 08:43 37.49782 -5.56173 11074 ft 332 kts 67°
2026-04-27 08:43 37.50718 -5.53491 11775 ft 338 kts 67°
2026-04-27 08:44 37.51669 -5.50760 12486 ft 343 kts 67°
2026-04-27 08:44 37.52634 -5.47988 13223 ft 348 kts 68°
2026-04-27 08:44 37.53613 -5.45180 13922 ft 353 kts 67°
2026-04-27 08:44 37.54608 -5.42325 14525 ft 358 kts 67°
2026-04-27 08:45 37.55615 -5.39432 15149 ft 363 kts 68°
2026-04-27 08:45 37.56305 -5.37453 15556 ft 366 kts 67°
2026-04-27 08:45 37.57332 -5.34494 16164 ft 371 kts 67°
2026-04-27 08:45 37.58357 -5.31536 16757 ft 375 kts 67°
2026-04-27 08:46 37.59404 -5.28506 17389 ft 379 kts 67°
2026-04-27 08:46 37.60321 -5.25370 18003 ft 383 kts 76°
2026-04-27 08:46 37.60784 -5.22050 18581 ft 386 kts 85°
2026-04-27 08:46 37.61017 -5.18665 19132 ft 389 kts 85°
2026-04-27 08:47 37.61255 -5.15248 19689 ft 393 kts 85°
2026-04-27 08:47 37.61494 -5.11803 20246 ft 396 kts 85°
2026-04-27 08:47 37.61740 -5.08328 20797 ft 399 kts 85°
2026-04-27 08:47 37.61988 -5.04828 21356 ft 403 kts 85°
2026-04-27 08:48 37.62237 -5.01295 21912 ft 406 kts 85°
2026-04-27 08:48 37.62485 -4.97732 22453 ft 409 kts 85°
2026-04-27 08:48 37.62733 -4.94139 22978 ft 413 kts 85°
2026-04-27 08:48 37.62979 -4.90525 23509 ft 415 kts 86°
2026-04-27 08:49 37.63226 -4.86881 23954 ft 418 kts 86°
2026-04-27 08:49 37.63473 -4.83211 24372 ft 421 kts 86°
2026-04-27 08:49 37.63717 -4.79519 24781 ft 424 kts 86°
2026-04-27 08:49 37.63963 -4.75801 25185 ft 427 kts 86°
2026-04-27 08:50 37.64211 -4.72059 25579 ft 429 kts 85°
2026-04-27 08:50 37.64460 -4.68299 25976 ft 432 kts 85°
2026-04-27 08:50 37.64711 -4.64511 26347 ft 434 kts 85°
2026-04-27 08:50 37.64962 -4.60701 26720 ft 437 kts 85°
2026-04-27 08:51 37.65214 -4.56868 27096 ft 440 kts 85°
2026-04-27 08:51 37.65464 -4.53010 27447 ft 442 kts 85°
2026-04-27 08:51 37.65715 -4.49133 27793 ft 445 kts 85°
2026-04-27 08:51 37.65969 -4.45228 28139 ft 448 kts 85°
2026-04-27 08:52 37.66226 -4.41301 28475 ft 450 kts 85°
2026-04-27 08:52 37.66485 -4.37352 28806 ft 453 kts 85°
2026-04-27 08:52 37.66742 -4.33385 29129 ft 455 kts 85°
2026-04-27 08:52 37.66995 -4.29393 29449 ft 457 kts 85°
2026-04-27 08:53 37.67245 -4.25381 29760 ft 460 kts 85°
2026-04-27 08:53 37.67495 -4.21352 30055 ft 462 kts 85°
2026-04-27 08:53 37.67741 -4.17352 30310 ft 464 kts 85°
2026-04-27 08:53 37.67991 -4.13281 30556 ft 466 kts 85°
2026-04-27 08:54 37.68241 -4.09194 30801 ft 468 kts 85°
2026-04-27 08:54 37.68489 -4.05092 31028 ft 470 kts 85°
2026-04-27 08:54 37.68737 -4.00978 31254 ft 471 kts 85°
2026-04-27 08:54 37.68987 -3.96854 31546 ft 471 kts 85°
2026-04-27 08:55 37.69238 -3.92735 31863 ft 470 kts 85°
2026-04-27 08:55 37.69487 -3.88622 32182 ft 470 kts 85°
2026-04-27 08:55 37.69731 -3.84517 32484 ft 469 kts 86°
2026-04-27 08:55 37.69971 -3.80411 32804 ft 469 kts 85°
2026-04-27 08:56 37.70208 -3.76306 33089 ft 469 kts 85°
2026-04-27 08:56 37.70445 -3.72202 33396 ft 468 kts 85°
2026-04-27 08:56 37.70684 -3.68102 33712 ft 468 kts 85°
2026-04-27 08:56 37.70922 -3.64004 34028 ft 468 kts 85°
2026-04-27 08:57 37.71393 -3.55823 34579 ft 467 kts 85°
2026-04-27 08:57 37.71625 -3.51731 34837 ft 467 kts 86°
2026-04-27 08:57 37.71854 -3.47636 35078 ft 467 kts 86°
2026-04-27 08:58 37.72080 -3.43540 35305 ft 468 kts 86°
2026-04-27 08:58 37.72307 -3.39438 35505 ft 468 kts 85°
2026-04-27 08:58 37.72533 -3.35335 35710 ft 469 kts 86°
2026-04-27 08:58 37.72757 -3.31223 35923 ft 469 kts 86°
2026-04-27 08:59 37.72980 -3.27110 36138 ft 469 kts 86°
2026-04-27 08:59 37.73202 -3.22996 36343 ft 470 kts 86°
2026-04-27 08:59 37.73424 -3.18880 36559 ft 470 kts 86°
2026-04-27 08:59 37.73646 -3.14763 36754 ft 470 kts 86°
2026-04-27 09:00 37.73865 -3.10647 36943 ft 470 kts 86°
2026-04-27 09:00 37.74081 -3.06526 37136 ft 470 kts 86°
2026-04-27 09:00 37.74295 -3.02402 37307 ft 471 kts 86°
2026-04-27 09:00 37.74508 -2.98273 37472 ft 472 kts 86°
2026-04-27 09:01 37.74721 -2.94136 37641 ft 472 kts 86°
2026-04-27 09:01 37.74933 -2.89996 37820 ft 472 kts 86°
2026-04-27 09:01 37.75195 -2.85863 38009 ft 471 kts 81°
2026-04-27 09:01 37.75943 -2.81840 38128 ft 470 kts 68°
2026-04-27 09:02 37.77313 -2.78111 38135 ft 468 kts 57°
2026-04-27 09:02 37.81324 -2.71716 38143 ft 464 kts 43°
2026-04-27 09:03 37.85775 -2.65800 38141 ft 465 kts 44°
2026-04-27 09:03 37.90210 -2.59844 38138 ft 465 kts 44°
2026-04-27 09:04 37.94657 -2.53902 38160 ft 465 kts 44°
2026-04-27 09:04 37.99108 -2.47964 38158 ft 464 kts 44°
2026-04-27 09:05 38.03557 -2.42034 38168 ft 464 kts 44°
2026-04-27 09:05 38.08004 -2.36089 38168 ft 464 kts 44°
2026-04-27 09:06 38.12410 -2.30171 38163 ft 464 kts 44°
2026-04-27 09:06 38.16835 -2.24210 38168 ft 464 kts 44°
2026-04-27 09:07 38.21219 -2.18199 38189 ft 464 kts 49°
2026-04-27 09:07 38.25215 -2.11744 38189 ft 464 kts 50°
2026-04-27 09:08 38.29210 -2.05292 38186 ft 464 kts 50°
2026-04-27 09:08 38.33207 -1.98843 38185 ft 464 kts 49°
2026-04-27 09:09 38.37197 -1.92385 38181 ft 464 kts 50°
2026-04-27 09:09 38.41179 -1.85911 38185 ft 464 kts 50°
2026-04-27 09:10 38.45152 -1.79436 38181 ft 463 kts 50°
2026-04-27 09:10 38.49122 -1.72958 38180 ft 463 kts 50°
2026-04-27 09:11 38.53090 -1.66467 38181 ft 464 kts 50°
2026-04-27 09:11 38.57058 -1.59979 38180 ft 463 kts 50°
2026-04-27 09:12 38.61026 -1.53487 38179 ft 463 kts 50°
2026-04-27 09:12 38.64982 -1.46981 38190 ft 464 kts 50°
2026-04-27 09:13 38.68933 -1.40459 38184 ft 463 kts 50°
2026-04-27 09:13 38.72876 -1.33936 38178 ft 463 kts 50°
2026-04-27 09:14 38.76815 -1.27417 38175 ft 462 kts 50°
2026-04-27 09:14 38.80725 -1.20944 38167 ft 462 kts 50°
2026-04-27 09:15 38.84659 -1.14420 38169 ft 462 kts 50°
2026-04-27 09:15 38.88586 -1.07891 38170 ft 462 kts 50°
2026-04-27 09:16 38.92510 -1.01352 38179 ft 462 kts 50°
2026-04-27 09:16 38.96424 -0.94807 38179 ft 462 kts 50°
2026-04-27 09:17 39.00332 -0.88263 38177 ft 461 kts 50°
2026-04-27 09:17 39.04232 -0.81714 38177 ft 461 kts 51°
2026-04-27 09:18 39.08315 -0.75374 38172 ft 461 kts 52°
2026-04-27 09:18 39.09787 -0.71726 38170 ft 463 kts 72°
2026-04-27 09:18 39.10396 -0.67664 38170 ft 463 kts 81°
2026-04-27 09:19 39.11399 -0.59471 38150 ft 464 kts 79°
2026-04-27 09:19 39.12568 -0.51301 38155 ft 464 kts 78°
2026-04-27 09:20 39.13739 -0.43130 38158 ft 464 kts 79°
2026-04-27 09:20 39.14854 -0.34943 38162 ft 464 kts 79°
2026-04-27 09:21 39.15944 -0.26752 38174 ft 464 kts 79°
2026-04-27 09:21 39.17036 -0.18557 38175 ft 464 kts 79°
2026-04-27 09:21 39.17582 -0.14453 37996 ft 465 kts 79°
2026-04-27 09:22 39.18130 -0.10351 37720 ft 464 kts 79°
2026-04-27 09:22 39.18679 -0.06263 37450 ft 463 kts 79°
2026-04-27 09:22 39.19226 -0.02173 37184 ft 463 kts 79°
2026-04-27 09:22 39.19769 0.01915 36934 ft 462 kts 79°
2026-04-27 09:23 39.20311 0.05996 36677 ft 462 kts 79°
2026-04-27 09:23 39.20850 0.10078 36427 ft 462 kts 79°
2026-04-27 09:23 39.21377 0.14104 36171 ft 461 kts 79°
2026-04-27 09:23 39.21914 0.18237 35914 ft 461 kts 79°
2026-04-27 09:24 39.22440 0.22315 35665 ft 461 kts 79°
2026-04-27 09:24 39.22961 0.26335 35419 ft 460 kts 79°
2026-04-27 09:24 39.23497 0.30457 35170 ft 460 kts 79°
2026-04-27 09:24 39.24026 0.34526 34930 ft 460 kts 79°
2026-04-27 09:25 39.24548 0.38540 34705 ft 460 kts 79°
2026-04-27 09:25 39.25075 0.42608 34463 ft 460 kts 79°
2026-04-27 09:25 39.25598 0.46678 34224 ft 460 kts 79°
2026-04-27 09:25 39.26115 0.50749 33964 ft 460 kts 79°
2026-04-27 09:26 39.26630 0.54816 33687 ft 460 kts 79°
2026-04-27 09:26 39.27144 0.58890 33416 ft 460 kts 80°
2026-04-27 09:26 39.27654 0.62955 33147 ft 458 kts 80°
2026-04-27 09:26 39.28163 0.67004 32884 ft 456 kts 80°
2026-04-27 09:27 39.28672 0.71036 32616 ft 454 kts 80°
2026-04-27 09:27 39.29176 0.75034 32049 ft 449 kts 80°
2026-04-27 09:27 39.29673 0.79000 31449 ft 446 kts 80°
2026-04-27 09:27 39.30164 0.82933 30844 ft 443 kts 81°
2026-04-27 09:28 39.30650 0.86843 30248 ft 440 kts 81°
2026-04-27 09:28 39.31131 0.90726 29611 ft 436 kts 81°
2026-04-27 09:28 39.31609 0.94567 29045 ft 431 kts 81°
2026-04-27 09:28 39.32079 0.98368 28471 ft 426 kts 81°
2026-04-27 09:29 39.32543 1.02131 27917 ft 422 kts 81°
2026-04-27 09:29 39.32999 1.05855 27361 ft 418 kts 81°
2026-04-27 09:29 39.33449 1.09550 26816 ft 414 kts 81°
2026-04-27 09:29 39.33898 1.13210 26287 ft 411 kts 81°
2026-04-27 09:30 39.34342 1.16839 25775 ft 407 kts 80°
2026-04-27 09:30 39.34778 1.20437 25272 ft 404 kts 81°
2026-04-27 09:30 39.35211 1.24001 24772 ft 400 kts 81°
2026-04-27 09:30 39.35641 1.27547 24285 ft 398 kts 81°
2026-04-27 09:31 39.36068 1.31059 23808 ft 395 kts 81°
2026-04-27 09:31 39.36487 1.34556 23271 ft 392 kts 81°
2026-04-27 09:31 39.36898 1.38019 22801 ft 388 kts 81°
2026-04-27 09:31 39.37305 1.41444 22325 ft 384 kts 81°
2026-04-27 09:32 39.37727 1.44833 21853 ft 380 kts 80°
2026-04-27 09:32 39.38167 1.48187 21385 ft 377 kts 80°
2026-04-27 09:32 39.38613 1.51507 20905 ft 374 kts 80°
2026-04-27 09:32 39.38910 1.53694 20593 ft 372 kts 79°
2026-04-27 09:33 39.39354 1.56978 20109 ft 370 kts 80°
2026-04-27 09:33 39.39788 1.60245 19629 ft 368 kts 80°
2026-04-27 09:33 39.40216 1.63497 19147 ft 366 kts 80°
2026-04-27 09:33 39.40639 1.66730 18670 ft 364 kts 80°
2026-04-27 09:34 39.41059 1.69955 18160 ft 363 kts 81°
2026-04-27 09:34 39.41472 1.73162 17679 ft 360 kts 81°
2026-04-27 09:34 39.41881 1.76341 17207 ft 357 kts 81°
2026-04-27 09:34 39.42290 1.79493 16745 ft 354 kts 81°
2026-04-27 09:35 39.42696 1.82622 16290 ft 352 kts 81°
2026-04-27 09:35 39.43097 1.85729 15840 ft 349 kts 81°
2026-04-27 09:35 39.43493 1.88820 15391 ft 347 kts 81°
2026-04-27 09:35 39.43887 1.91890 14938 ft 345 kts 81°
2026-04-27 09:36 39.44279 1.94947 14499 ft 343 kts 81°
2026-04-27 09:36 39.44667 1.97947 14352 ft 332 kts 81°
2026-04-27 09:36 39.45040 2.00842 14237 ft 321 kts 81°
2026-04-27 09:36 39.45515 2.03610 14116 ft 311 kts 72°
2026-04-27 09:37 39.46207 2.06228 13888 ft 305 kts 72°
2026-04-27 09:37 39.46889 2.08804 13787 ft 302 kts 72°
2026-04-27 09:37 39.47566 2.11368 13648 ft 301 kts 72°
2026-04-27 09:37 39.48229 2.13897 13493 ft 300 kts 72°
2026-04-27 09:38 39.48897 2.16454 13349 ft 300 kts 72°
2026-04-27 09:38 39.49562 2.19007 13199 ft 299 kts 72°
2026-04-27 09:38 39.50228 2.21555 13048 ft 298 kts 72°
2026-04-27 09:38 39.50894 2.24096 12904 ft 298 kts 72°
2026-04-27 09:39 39.51560 2.26633 12749 ft 297 kts 72°
2026-04-27 09:39 39.52223 2.29166 12584 ft 297 kts 72°
2026-04-27 09:39 39.52884 2.31698 12450 ft 297 kts 72°
2026-04-27 09:39 39.53543 2.34228 12291 ft 296 kts 72°
2026-04-27 09:40 39.54202 2.36753 12145 ft 296 kts 72°